Location: Newark
(21.1200°N, 73.4000°E)
Time: 05:29:13
(UTC+00:00)

Courier 1B Rocket - Pass Details

Date: 27 January 2020
Orbit: 920 x 1202 km, 28.2° (Epoch: 19 February)

Event Time Altitude Azimuth Distance (km) Brightness Sun altitude
Rises 01:29:34 0° 200° (SSW) 4,080 8.2 -4.3°
Reaches altitude 10° 01:34:10 10° 177° (S) 3,123 8.0 -3.2°
Maximum altitude 01:37:52 14° 148° (SSE) 2,820 8.3 -2.4°
Drops below altitude 10° 01:41:33 10° 119° (ESE) 3,098 9.6 -1.6°
Sets 01:46:02 0° 95° (E) 4,024 10.2 -0.6°
